TimeCST,TemperatureF,Dew PointF,Humidity,Sea Level PressureIn,VisibilityMPH,Wind Direction,Wind SpeedMPH,Gust SpeedMPH,PrecipitationIn,Events,Conditions,WindDirDegrees,DateUTC
12:53 AM,17.1,10.9,77,29.96,10.0,West,6.9,-,N/A,,Clear,260,2013-02-24 06:53:00
1:53 AM,17.1,10.9,77,29.98,10.0,West,6.9,-,N/A,,Scattered Clouds,270,2013-02-24 07:53:00
2:53 AM,16.0,10.9,81,29.99,10.0,West,8.1,-,N/A,,Clear,260,2013-02-24 08:53:00
3:53 AM,16.0,10.0,77,30.00,10.0,WSW,5.8,-,N/A,,Clear,250,2013-02-24 09:53:00
4:53 AM,12.9,10.0,88,30.01,8.0,West,6.9,-,N/A,,Clear,260,2013-02-24 10:53:00
5:53 AM,14.0,10.0,84,30.04,8.0,West,5.8,-,N/A,,Clear,270,2013-02-24 11:53:00
6:53 AM,14.0,10.0,84,30.06,7.0,West,4.6,-,N/A,,Clear,260,2013-02-24 12:53:00
7:53 AM,17.1,12.0,81,30.08,8.0,West,6.9,-,N/A,,Clear,260,2013-02-24 13:53:00
8:53 AM,21.9,14.0,72,30.09,9.0,West,9.2,-,N/A,,Clear,280,2013-02-24 14:53:00
9:53 AM,26.1,17.1,69,30.11,10.0,West,8.1,-,N/A,,Clear,270,2013-02-24 15:53:00
10:53 AM,30.0,19.0,64,30.12,10.0,West,6.9,-,N/A,,Clear,280,2013-02-24 16:53:00
11:53 AM,33.1,21.0,61,30.12,10.0,West,5.8,-,N/A,,Clear,280,2013-02-24 17:53:00
12:53 PM,35.1,21.0,57,30.12,10.0,West,8.1,-,N/A,,Clear,270,2013-02-24 18:53:00
1:53 PM,36.0,21.9,57,30.12,10.0,WSW,6.9,-,N/A,,Clear,250,2013-02-24 19:53:00
2:53 PM,36.0,21.9,57,30.11,10.0,WSW,6.9,-,N/A,,Clear,250,2013-02-24 20:53:00
3:53 PM,36.0,21.0,55,30.12,10.0,WNW,3.5,-,N/A,,Clear,300,2013-02-24 21:53:00
4:53 PM,35.1,21.0,57,30.13,10.0,West,3.5,-,N/A,,Clear,280,2013-02-24 22:53:00
5:53 PM,32.0,19.9,61,30.14,10.0,Calm,Calm,-,N/A,,Clear,0,2013-02-24 23:53:00
6:53 PM,30.0,23.0,75,30.16,9.0,SSE,3.5,-,N/A,,Clear,150,2013-02-25 00:53:00
7:53 PM,26.1,21.9,84,30.16,7.0,Calm,Calm,-,N/A,,Clear,0,2013-02-25 01:53:00
8:53 PM,24.1,19.9,84,30.16,8.0,Calm,Calm,-,N/A,,Clear,0,2013-02-25 02:53:00
9:53 PM,21.0,17.1,85,30.16,5.0,Calm,Calm,-,N/A,,Clear,0,2013-02-25 03:53:00
10:53 PM,19.9,17.1,89,30.16,4.0,Calm,Calm,-,N/A,,Clear,0,2013-02-25 04:53:00
11:53 PM,19.9,17.1,89,30.16,2.5,Calm,Calm,-,N/A,,Clear,0,2013-02-25 05:53:00